Change the Weather History Date:

Monday, October 29, 2012

  Actual Average Record
Temperature  
Mean Temperature 54 °F -  
Max Temperature 59 °F 49 °F - ()
Min Temperature 48 °F 36 °F - ()
Degree Days  
Heating Degree Days 12    
Growing Degree Days 4 (Base 50)    
Moisture  
Dew Point 49 °F    
Average Humidity 87    
Maximum Humidity 100    
Minimum Humidity 62    
Precipitation  
Precipitation 0.39 in 0.18 in - ()
Sea Level Pressure  
Sea Level Pressure 29.84 in    
Wind  
Wind Speed 6 mph ()    
Max Wind Speed 17 mph    
Max Gust Speed 29 mph    
Visibility 9.3 miles    
Events Rain    
T = Trace of Precipitation, MM = Missing Value Source: Averaged Metar Reports

Daily Weather History Graph

Daily Weather History Graph

Search for Another Location

Airport or City:

Trip Planner

Search our weather history database for the weather conditions in past years. The results will help you decide how hot, cold, wet, or windy it might be!

Date:

Astronomy

Oct. 29, 2012 Rise Set
Actual Time 7:56 AM PDT 5:57 PM PDT
Civil Twilight 7:23 AM PDT 6:30 PM PDT
Nautical Twilight 6:46 AM PDT 7:07 PM PDT
Astronomical Twilight 6:10 AM PDT 7:43 PM PDT
Moon 5:48 PM PDT (10/29) 7:55 AM PDT (10/29)
Length of Visible Light 11h 06m
Length of Day
10h 01m
Full, 100% of the Moon is Illuminated
Oct 29
Full
Oct 29
Full
Nov 6
Last Quarter
Nov 13
New
Nov 20
First Quarter

Hourly Weather History & Observations

Time (PDT) Temp. Dew Point Humidity Pressure Visibility Wind Dir Wind Speed Gust Speed Precip Events Conditions
12:00 AM 50.0 °F 48.2 °F 94% 29.77 in 2.0 mi West 3.5 mph - N/A Rain Light Rain
12:33 AM 50.0 °F - N/A% - 1.0 mi West 2.3 mph - N/A Rain Light Rain
1:00 AM 50.0 °F 48.2 °F 94% 29.75 in 1.0 mi North 3.5 mph - N/A Rain Light Rain
1:11 AM 50.0 °F - N/A% - 0.8 mi NNE 4.6 mph - N/A Rain Light Rain
1:22 AM 50.0 °F - N/A% - 1.0 mi NE 5.8 mph - N/A Rain Light Rain
2:00 AM 50.0 °F 48.2 °F 94% 29.76 in 1.0 mi NW 4.6 mph - N/A Rain Light Rain
3:00 AM 50.0 °F 48.2 °F 94% 29.75 in 1.0 mi North 4.6 mph - N/A Rain Light Rain
3:39 AM 50.0 °F - N/A% - 1.0 mi ENE 10.4 mph - N/A Rain Light Rain
4:00 AM 50.0 °F 48.2 °F 94% 29.73 in 1.0 mi NE 6.9 mph - N/A Rain Rain
5:00 AM 49 °F 47 °F 91% 29.71 in 1 mi NE 8.1 mph - - Rain Rain
5:00 AM 48.2 °F 46.4 °F 93% 29.71 in 1.0 mi NE 9.2 mph - N/A Rain Rain
5:15 AM 48.2 °F - N/A% - 1.5 mi NE 5.8 mph - N/A Rain Light Rain
6:00 AM 48.2 °F 48.2 °F 100% 29.70 in 1.0 mi Calm Calm - N/A Rain Light Rain
7:00 AM 48.2 °F 48.2 °F 100% 29.72 in 1.0 mi Calm Calm - N/A Rain Light Rain
7:40 AM 50.0 °F - N/A% - 2.0 mi Calm Calm - N/A Rain Light Rain
7:50 AM 50.0 °F - N/A% - 1.0 mi WNW 4.6 mph - N/A Rain Light Rain
8:00 AM 48.2 °F 48.2 °F 100% 29.74 in 1.0 mi NW 6.9 mph - N/A Rain Light Rain
8:15 AM 50.0 °F - N/A% - 2.0 mi NNW 2.3 mph - N/A Rain Light Rain
9:00 AM 50.0 °F 48.2 °F 94% 29.78 in 3.0 mi NW 2.3 mph - N/A Rain Light Rain
10:00 AM 50.0 °F 48.2 °F 94% 29.80 in 4.0 mi ENE 5.8 mph - N/A Rain Light Rain
11:00 AM 50 °F 49 °F 94% 29.82 in 4 mi SE 8.1 mph - - Rain Light Rain
11:00 AM 50.0 °F 48.2 °F 94% 29.82 in 4.0 mi SE 9.2 mph - N/A Rain Light Rain
12:00 PM 51.8 °F 50.0 °F 94% 29.85 in 12.0 mi SSE 15.0 mph 20.7 mph N/A Rain Light Rain
12:32 PM 55.4 °F - N/A% - 15.0 mi South 15.0 mph 20.7 mph N/A   Mostly Cloudy
1:00 PM 57.2 °F 51.8 °F 82% 29.87 in 20.0 mi South 11.5 mph 17.3 mph N/A   Mostly Cloudy
2:00 PM 59.0 °F 50.0 °F 72% 29.89 in 20.0 mi SSW 17.3 mph 28.8 mph N/A   Mostly Cloudy
3:00 PM 59.0 °F 50.0 °F 72% 29.93 in 20.0 mi SW 13.8 mph - N/A   Mostly Cloudy
4:00 PM 57.2 °F 50.0 °F 77% 29.96 in 20.0 mi WSW 11.5 mph 20.7 mph N/A   Mostly Cloudy
5:00 PM 58 °F 48 °F 62% 29.95 in 19 mi SW 9.2 mph - -   Partly Cloudy
5:00 PM 57.2 °F 48.2 °F 72% 29.95 in 20.0 mi SW 8.1 mph - N/A   Mostly Cloudy
6:00 PM 57.2 °F 48.2 °F 72% 29.94 in 20.0 mi SW 6.9 mph - N/A   Mostly Cloudy
6:49 PM 55.4 °F - N/A% - 20.0 mi WSW 5.8 mph - N/A Rain Light Rain
7:00 PM 57.2 °F 50.0 °F 77% 29.94 in 20.0 mi South 9.2 mph - N/A Rain Light Rain
8:00 PM 57.2 °F 50.0 °F 77% 29.94 in 20.0 mi SSW 13.8 mph - N/A   Overcast
8:47 PM 55.4 °F - N/A% - 20.0 mi South 2.3 mph - N/A Rain Light Rain Showers
9:00 PM 53.6 °F 50.0 °F 88% 29.94 in 20.0 mi SE 4.6 mph - N/A Rain Light Rain Showers
10:00 PM 53.6 °F 50.0 °F 88% 29.93 in 20.0 mi South 5.8 mph - N/A   Overcast
11:00 PM 53 °F 50 °F 85% 29.93 in 19 mi SSE 8.1 mph - -   Partly Cloudy
11:00 PM 53.6 °F 50.0 °F 88% 29.93 in 20.0 mi SSE 6.9 mph - N/A   Overcast